ATLAS 5 CENTAUR R/B, 39653

Orbit data source: Space-Track

ATLAS 5 CENTAUR R/B, 39653 is space debris in HEO originally from a launch on Thu, 10 Apr 2014 UTC launched from the Air Force Eastern Test Range (AFETR). Debris objects in space refer to the collection of defunct objects orbiting the Earth. Examples of debris include non-operational satellites, rocket bodies, and fragments generated from explosions, collisions, or faulty payload assembly.

Loading next visibility...
Identifier
39653, 2014-020B
Orbit
HEO
Last TLE update
2 days ago
Origin
Manufacturer
ULA Decatur
Mission
Spacecraft
Bus & Motor
CENTAUR SEC, RL10-4A-2
Mass
~2,020 kg wet, 2,020 kg dry
Launch date (UTC)
2014-04-10 (11 years ago)
Launch vehicle
Unknown
Launch site
Air Force Eastern Test Range (AFETR)
Object type
Payload
Rocket body
Debris
Shape & HBR
Cyl + 1 Nozzle, 11.7 m
Radar Cross Section
32.260 m²

Expand to show TLE details & history

TLE from 2 days ago
0 ATLAS 5 CENTAUR R/B
1 39653U 14020B   25127.96870883 -.00000082  00000-0  00000+0 0  9999
2 39653  11.0624 277.6123 4870581 229.0330  77.3554  1.86029853 38422
Epoch: 2025-05-07T23:14Z
Definitive object data (Epoch: 2025-05-07T23:14:56.442Z)
Latitude
-0.00002°
Longitude
62.77736°
Altitude
24,891.642 km
Speed
3.35 km/s
True Right ascension
18h 30m 14s
True Declination
0° 00' 00"
Sunlit
Object was in daylight at TLE epoch
Visualization TLE readout
Latitude
6.59286°
Longitude
98.7858°
Altitude
34,169.56 km
Speed
2.321 km/s
Apparent Right ascension
20h 29m 27s
Apparent Declination
0° 52' 43"
Sunlit
Object is in daylight
Visualization observer readout
Local Sidereal Time
00:40:12
Azimuth
252.354° W
Elevation
21.205°
Doppler factor
1
Orbital elements
Apogee altitude
35,153.246 km
Perigee altitude
7,947.589 km
Semi-major axis
27,928.555 km
Eccentricity
0.4870581
Inclination
11.0624°
RAAN
277.6123°
Arg. of periapsis
229.033°
True anomaly
131.0047°
Mean anomaly
77.3554°
Eccentric anomaly
104.38666°
Mean motion
0.46502 °/min
BSTAR
Unknown
Orbital period
774.16 mins
Loading maneuver chart data...
Loading SW <> Apogee altitude chart data...
Loading historical data...
Loading historical data...
Loading historical data...
Loading historical data...
Loading historical data...
Loading historical data...
Loading historical data...
Other satellites on launch #20 in the year 2014 (2014-04-10 UTC)

ATLAS 5 CENTAUR R/B Visibility forecast

Observer location: undefined°, undefined°

Span
Click to sort rows by Start time (UTC) header in descending order
Start Az.
Max El. time (UTC)
Max El. Az.
Max El.
End time (UTC)
End Az.
457 mins2025-05-09 16:29:43.388Z252.338° W2025-05-09 23:28:43.388Z208.867° SW23.816°2025-05-10 00:06:43.388Z149.679° SSE
|